Activity Log for Jul, 04 2019

Back to Activity Log Search


Incident Time Nature Address
19F078995 00:00:42 1 MEET 30XX KENWOOD AVE
19F078999 00:03:09 EMS 11XX W STATE BLVD
19F078998 00:03:54 48,36 41XX REED ST
19F079000 00:04:27 30 TRAFFIC STOP 10XX MCKINNIE AVE
19F079004 00:04:32 44FW 50XX BAHAMA LN
19F079001 00:04:59 30 TRAFFIC STOP S HANNA ST & MCKINNIE AVE
19F079003 00:07:11 44FW 74XX MATILDA JANE CV
19F079005 00:09:42 46 DOMESTIC 26XX BUTLER RD
19F079007 00:17:29 113 SHOTS FIRED 4XX W CONCORD LN
19F079008 00:21:22 40 ALARM 40XX PLAZA DR
19F079015 00:22:39 30 TRAFFIC STOP HOMESTEAD RD & BRANNING RD
19F079009 00:27:58 46,62 46XX COLLBRAN CT
19F079010 00:28:50 113 SHOTS FIRED 38XX PLAZA DR
19F079014 00:33:42 44FW 15XX FENWICK PL
19F079012 00:34:03 15,85 ASST AT O W COLISEUM BLVD & SPEEDWAY DR
19F079011 00:34:08 57 STRONG ARM 35XX BROADWAY
19F079013 00:35:04 46,96 33XX S BARR ST
19F079018 00:38:25 46,96 25XX WESTWARD DR
19F079016 00:38:42 44FW 53XX SEAFORTH LN
19F079017 00:40:19 30 TRAFFIC STOP BOWSER AVE & SENATE AVE
19F079019 00:45:26 40P PANIC ALARM 8XX COLERICK ST
19F079021 00:46:05 15,85 ASST AT O COLDWATER RD & NORTHEAST DR
19F079020 00:46:32 30 TRAFFIC STOP ILLINOIS RD & ABBEY PLACE BLVD
19F079022 00:46:43 43 DISTURBANCE 14XX W WASHINGTON CENTER RD
19F079023 00:52:39 30 TRAFFIC STOP STELLHORN RD & REED RD
19F079024 00:52:56 37 PARKING VIOL 62XX OLD BROOK DR
19F079025 00:54:11 30 TRAFFIC STOP 303XX I 69 NB
19F079026 00:55:43 37 PARKING VIOL 61XX OLD BROOK DR
19F079027 00:59:12 37 PARKING VIOL 61XX OLD BROOK DR
19F079028 01:02:50 46 DOMESTIC 24XX E STATE BLVD
19F079029 01:03:42 22I JUV INVEST 16XX W FOURTH ST
19F079030 01:09:49 30 TRAFFIC STOP 304XX I 69 NB
19F079031 01:10:42 25HS HIT SKIP 35XX HARRIS RD
19F079032 01:17:56 46,96 2XX E FOSTER PKWY
19F079034 01:20:57 48 SUSPICIOUS 3XX NORTHEAST DR
19F079033 01:21:24 30 TRAFFIC STOP 305XX I 69 NB
19F079036 01:23:13 103 UNWANTED 19XX BROADWAY
19F079035 01:23:43 1 MEET 7XX W COLISEUM BLVD
19F079037 01:24:15 22I JUV INVEST 27XX BROADWAY
19F079042 01:29:24 44FW S HARRISON ST & W WILLIAMS ST
19F079038 01:29:37 63 CONTACT 41XX HUTH DR
19F079039 01:30:28 48 SUSPICIOUS 63XX LIMA RD
19F079041 01:31:16 44LP 29XX BLK LILLIE ST
19F079040 01:31:40 44FW 2XX E DEWALD ST
19F079043 01:37:36 30 TRAFFIC STOP E STATE BLVD & PARNELL AVE
19F079044 01:40:46 43 DISTURBANCE 50XX OLD MAYSVILLE RD
19F079054 01:45:16 44LM 1XX RILEY PL
19F079045 01:47:41 30 TRAFFIC STOP MANFORD ST & FRUEHAUF DR
19F079046 01:50:37 96JO 69XX BEATY AVE
19F079047 01:52:00 48 SUSPICIOUS 6XX W WAYNE ST
19F079048 01:52:09 46 DOMESTIC 55XX HOAGLAND AVE
19F079049 01:56:56 40A AUDIBLE 19XX S CALHOUN ST
19F079080 02:01:18 46,96 221XX MAPLE CT
19F079055 02:01:48 44FW 75XX SADDLEWOOD DR
19F079053 02:03:00 51 THEFT 19XX BLUFFTON RD
19F079050 02:05:49 103 UNWANTED 29XX E STATE BLVD
19F079051 02:06:37 43 DISTURBANCE 22XX BROOKLYN AVE
19F079052 02:09:38 46 DOMESTIC 18XX ALLIGER ST
19F079056 02:19:07 40A AUDIBLE 18XX WAYNE TRACE
19F079057 02:20:21 25 PD ACCIDENT 19XX BROADWAY
19F079058 02:26:17 EMS 55XX HIGHVIEW DR
19F079059 02:30:07 48 SUSPICIOUS 59XX LIMA RD
19F079060 02:35:33 61 RAPE 30XX WAYNEDALE BLVD
19F079061 02:38:27 30 TRAFFIC STOP GOSHEN RD & INDEPENDENCE DR
19F079062 02:41:52 48,36 3XX W JEFFERSON BLVD
19F079063 02:42:10 18 WORK TRAFFIC 58XX BUNT DR
19F079064 02:44:11 25HS HIT SKIP 21XX FOX AVE
19F079065 02:44:40 25HS HIT SKIP LAKE AVE & OLD MAYSVILLE RD
19F079066 02:51:08 63 CONTACT S CALHOUN ST & W BUTLER ST
19F079067 03:02:12 48,36 30XX W COLISEUM BLVD
19F079070 03:02:36 44FW 10XX HIGH ST
19F079068 03:08:20 40A AUDIBLE 31XX LOWER HUNTINGTON RD
19F079069 03:09:19 30 TRAFFIC STOP E PONTIAC ST & WARSAW ST
19F079071 03:14:24 30 TRAFFIC STOP COLDWATER RD & E WASHINGTON CENTER
19F079072 03:15:12 30 TRAFFIC STOP E COLISEUM BLVD & N ANTHONY BLVD
19F079073 03:15:30 48 SUSPICIOUS 15XX WELLS ST
19F079074 03:20:13 43 DISTURBANCE 16XX E PONTIAC ST
19F079075 03:23:25 43 DISTURBANCE 26XX LILLIE ST
19F079077 03:26:37 40A AUDIBLE 127XX COLDWATER RD
19F079076 03:26:42 1 MEET E COLISEUM BLVD & CRESCENT AVE
19F079078 03:29:42 911 HANG UP 2XX W FOURTH ST
19F079079 03:44:52 57 STRONG ARM 27XX E PAULDING RD
19F079081 04:03:14 46 DOMESTIC 19XX ROY ST
19F079082 04:06:35 48 SUSPICIOUS 25XX HUBERTUS AVE
19F079083 04:11:43 48 SUSPICIOUS 64XX E STATE BLVD
19F079085 04:12:26 40A AUDIBLE 91XX TRIER RD
19F079084 04:13:01 30 TRAFFIC STOP E COLISEUM BLVD & N ANTHONY BLVD
19F079086 04:17:18 70 STRUCTURE 58XX BUNT DR
19F079087 04:27:10 43 DISTURBANCE 33XX W COLISEUM BLVD
19F079088 04:30:02 46 DOMESTIC 10XX LINCOLN AVE
19F079089 04:34:27 46 DOMESTIC 19XX ROY ST
19F079090 05:06:27 27 RECKLESS DRI E COLISEUM BLVD & COLDWATER RD
19F079091 05:56:13 33 DISABLED VEH 309XX I 69 SB
19F079092 05:57:17 911 HANG UP 25XX BOWSER AVE
19F079094 05:59:29 27 RECKLESS DRI 316XX I 69 SB
19F079093 06:03:47 43 DISTURBANCE 8XX DOLPHIN DR
19F079095 06:11:35 96JO 5XX DOLPHIN DR
19F079096 06:19:23 53 ARMED ROB 33XX W COLISEUM BLVD
19F079097 06:20:19 43 DISTURBANCE 5XX W JEFFERSON BLVD
19F079098 06:28:51 43 DISTURBANCE 8XX TENNESSEE AVE
19F079099 06:35:30 43 DISTURBANCE 7XX E TILLMAN RD
19F079100 06:36:26 45 NEIGHBORHOOD 25XX S HANNA ST
19F079101 06:46:26 58 SHOOTING 20XX HOBSON RD
19F079102 07:11:27 66 MENTALLY ILL 9XX OAKLAWN CT
19F079103 07:23:13 25 PD ACCIDENT 20XX S HARRISON ST
19F079104 07:27:45 48,36 34XX S BARR ST
19F079105 07:29:46 34 TRAFF HAZARD 2XX S CLINTON ST
19F079106 07:33:49 40A AUDIBLE 77XX BLUFFTON RD
19F079107 07:35:44 40A AUDIBLE 3XX LEY RD
19F079108 07:38:08 30 TRAFFIC STOP E CREIGHTON AVE & S HANNA ST
19F079132 07:39:42 46 DOMESTIC 20XX ST MARYS AVE
19F079109 07:47:29 35 PARKED VEHIC 5XX HOME AVE
19F079110 07:51:16 46,96 11XX W MAIN ST
19F079111 08:01:21 50,ATTEMPTED 27XX LOWER HUNTINGTON RD
19F079112 08:02:07 40A AUDIBLE 4XX E DUPONT RD
19F079113 08:15:14 911 HANG UP 33XX E MAPLE GROVE AVE
19F079114 08:19:19 40A AUDIBLE 68XX BLUFFTON RD
19F079115 08:36:05 911 HANG UP 45XX S LAFAYETTE ST
19F079131 08:58:12 23,35 VAND VEH 4XX ELMER AVE
19F079116 09:02:35 911 HANG UP 4XX SPRING ST
19F079117 09:05:43 23 VANDALISM 2XX DUNBAR LN
19F079118 09:11:10 101 OPEN DOOR 22XX SMITH ST
19F079119 09:14:13 40P PANIC ALARM 107XX OLD COLONY RD
19F079120 09:16:59 51 THEFT XX E MAIN ST
19F079125 09:17:42 46 DOMESTIC 16XX SPY RUN AVE
19F079123 09:23:35 111 ANIMAL INVE 5XX E LEITH ST
19F079141 09:28:46 37 PARKING VIOL 20XX RIEDMILLER AVE
19F079122 09:36:54 42 INTOX PERSON PEARL ST & S HARRISON ST
19F079126 09:51:24 50 BURGLARY 20XX BROADWAY
19F079159 10:01:25 99 NARCOTICS 55XX LE STEELE BLVD
19F079127 10:10:28 20 PROBLEM UNK 57XX CHALLENGER PKWY
19F079138 10:15:09 16,97 9XX REED RD
19F079128 10:16:37 103 UNWANTED 82XX LAKESIDE CT
19F079130 10:19:26 40I INTRUSION 32XX CIERA CT
19F079129 10:20:19 46 DOMESTIC 37XX E WASHINGTON BLVD
19F079139 10:21:20 50 BURGLARY 3XX PASADENA DR
19F079133 10:24:02 39 STOLEN VEHIC 36XX MEDA PASS
19F079137 10:33:27 23,35 VAND VEH 26XX LILLIE ST
19F079134 10:36:26 41 MAN DOWN 15XX OXFORD ST
19F079135 10:36:57 51,35 30XX HOAGLAND AVE
19F079168 10:38:19 39U UNAUTHORIZE 27XX W COLISEUM BLVD
19F079136 10:39:37 30 TRAFFIC STOP LAKE AVE & KENSINGTON BLVD
19F079156 10:41:38 1 MEET 77XX LIMA RD
19F079147 10:44:55 63 CONTACT 5XX W FOURTH ST
19F079140 11:04:34 34 TRAFF HAZARD RODGERS AVE & HOLLY AVE
19F079143 11:04:58 43 DISTURBANCE 35XX W COLISEUM BLVD
19F079142 11:08:34 48 SUSPICIOUS 13XX N COLISEUM BLVD
19F079144 11:10:01 46 DOMESTIC 65XX LIBERTY DR
19F079145 11:13:40 30 TRAFFIC STOP STELLHORN RD & ST JOE RD
19F079146 11:13:43 43 DISTURBANCE 10XX N COLISEUM BLVD
19F079148 11:16:32 51JO 75XX SOUTHTOWN XING
19F079149 11:18:13 43 DISTURBANCE 12XX W STATE BLVD
19F079150 11:18:57 25HS HIT SKIP 7XX WALNUT ST
19F079151 11:22:31 43 DISTURBANCE 29XX LILLIE ST
19F079152 11:27:20 40A AUDIBLE 63XX W JEFFERSON BLVD
19F079153 11:33:24 15 ASSIST MAPLECREST RD & ROTHMAN RD
19F079155 11:34:44 40A AUDIBLE 111XX BITTERSWEET DELLS LN
19F079154 11:35:53 25HS HIT SKIP 7XX WALNUT ST
19F079157 11:41:57 1 MEET 55XX S ANTHONY BLVD
19F079158 11:42:24 11C CAGE CAR 75XX SOUTHTOWN XING
19F079180 11:47:33 23,35 VAND VEH 3XX W WILLIAMS ST
19F079160 11:49:10 46,96 4XX W PONTIAC ST
19F079161 11:53:33 46 DOMESTIC 46XX E WASHINGTON BLVD
19F079162 11:56:07 41 MAN DOWN BROADWAY & SWINNEY AVE
19F079163 11:56:24 22I JUV INVEST W CREIGHTON AVE & SOUTHWAYNE AVE
19F079165 11:56:57 22I JUV INVEST 7XX E RUDISILL BLVD
19F079164 11:58:54 EMS 29XX GOSHEN RD
19F079167 12:00:37 63 CONTACT 37XX E WASHINGTON BLVD
19F079166 12:02:49 51 THEFT 54XX MEIJER DR
19F079217 12:07:45 47 REMOVE ITEMS 17XX CORTLAND AVE
19F079169 12:09:49 43 DISTURBANCE 29XX LILLIE ST
19F079170 12:12:49 1 MEET 32XX RAYMOND AVE
19F079178 12:15:04 33,34 FAIRFIELD AVE & W WILDWOOD AVE
19F079172 12:18:27 45 NEIGHBORHOOD 4XX PERRY AVE
19F079171 12:21:12 96IP 58XX TURTLE CREEK DR
19F079173 12:24:13 25HS HIT SKIP S CALHOUN ST & E PETTIT AVE
19F079181 12:24:35 51 THEFT 63XX W JEFFERSON BLVD
19F079174 12:25:38 26 PI ACCIDENT S CALHOUN ST & E PETTIT AVE
19F079176 12:27:10 50 BURGLARY 18XX ALLIGER ST
19F079175 12:29:27 66 MENTALLY ILL 28XX E DUPONT RD
19F079177 12:30:44 43 DISTURBANCE 15XX N ANTHONY BLVD
19F079179 12:34:46 25 PD ACCIDENT LIMA RD & W COLISEUM BLVD
19F079182 12:40:54 46 DOMESTIC 3XX MILLSIDE CT
19F079183 12:51:06 911 HANG UP 48XX SPATZ AVE
19F079184 12:53:26 46 DOMESTIC 48XX SPATZ AVE
19F079185 12:54:55 41 MAN DOWN 57XX COVENTRY LN
19F079187 12:58:39 39 STOLEN VEHIC 4XX FRENCH AVE
19F079186 13:07:04 40A AUDIBLE 22XX WAYNE TRACE
19F079190 13:08:24 44FW 12XX SOUTHFORK PASS
19F079189 13:10:33 FSC 15XX S ILLINOIS RD
19F079188 13:11:47 46 DOMESTIC 48XX LILLIE ST
19F079195 13:16:08 51JO 53XX DECATUR RD
19F079191 13:16:19 40A AUDIBLE 45XX NEWAYGO RD
19F079192 13:20:05 99 NARCOTICS 58XX TURTLE CREEK DR
19F079193 13:20:12 96JO BROADWAY & MICHIGAN AVE
19F079194 13:26:51 37 PARKING VIOL 5XX CURDES AVE
19F079207 13:30:04 51,35 43XX COLDWATER RD
19F079196 13:31:14 40 ALARM 36XX HOBSON RD
19F079197 13:36:16 40A AUDIBLE 19XX LAKEVIEW DR
19F079198 13:37:17 34 TRAFF HAZARD S LAFAYETTE ST & E WALLACE ST
19F079199 13:39:21 43 DISTURBANCE 59XX LIMA RD
19F079203 13:42:29 23,35 VAND VEH 45XX LILLIE ST
19F079201 13:45:47 102 THREATS 29XX WESTBROOK DR
19F079202 13:56:32 30 TRAFFIC STOP AUBURN RD & E COOK RD
19F079208 13:58:00 22RN RUNAWAY 25XX ELLEN AVE
19F079205 13:58:03 40A AUDIBLE 24XX W JEFFERSON BLVD
19F079204 13:59:26 48 SUSPICIOUS 3XX W COLISEUM BLVD
19F079206 14:03:28 43 DISTURBANCE 70XX IDEAL AVE
19F079209 14:11:37 30 TRAFFIC STOP BROADWAY & W BERRY ST
19F079210 14:14:12 62 PARTY ARMED 50XX OLD MAYSVILLE RD
19F079211 14:14:47 46 DOMESTIC 12XX STOPHLET ST
19F079212 14:17:01 63 CONTACT 10XX E COLISEUM BLVD
19F079214 14:17:45 46 DOMESTIC S CALHOUN ST & W CONCORD LN
19F079213 14:18:22 1 MEET 77XX AUBURN RD
19F079215 14:34:53 47 REMOVE ITEMS 74XX TIPPERARY TRL
19F079216 14:37:53 46 DOMESTIC 14XX ELIZA ST
19F079218 14:39:45 40A AUDIBLE 29XX CENTRAL DR
19F079220 14:40:17 911 HANG UP 13XX BOONE ST
19F079219 14:40:37 46 DOMESTIC 59XX BUNT DR
19F079221 14:42:39 43 DISTURBANCE 9XX E WASHINGTON BLVD
19F079222 14:47:15 40A AUDIBLE 89XX FORTUNA WAY
19F079224 14:52:18 102,TX THREATS 1XX W LEITH ST
19F079223 14:53:59 62 PARTY ARMED COLERICK ST & S ANTHONY BLVD
19F079225 14:56:41 50IP BURG I/P 21XX NELSON ST
19F079227 14:58:33 EMS 47XX BOWSER AVE
19F079226 15:00:13 25 PD ACCIDENT 39XX HOBSON RD
19F079232 15:09:48 22RN RUNAWAY 49XX NORTHCREST DR
19F079228 15:12:48 50 BURGLARY 22XX FOX AVE
19F079229 15:16:24 50IP BURG I/P 53XX GOSHEN RD
19F079230 15:16:47 43 DISTURBANCE 12XX N COLISEUM BLVD
19F079239 15:23:12 23,35 VAND VEH 37XX BRAMBLE CREST DR
19F079231 15:23:50 25 PD ACCIDENT E MAIN ST & CLAY ST
19F079233 15:37:44 43 DISTURBANCE 24XX BELLE VISTA BLVD
19F079234 15:51:13 48 SUSPICIOUS SHERMAN BLVD & W STATE BLVD
19F079238 15:53:06 25 PD ACCIDENT 38XX COLDWATER RD
19F079235 15:54:31 33J LOCKED OUT 33XX CENTRAL DR
19F079236 15:56:06 48 SUSPICIOUS 9XX W STATE BLVD
19F079237 15:56:57 17 MOTOR CHECK 7XX ROMY AVE
19F079240 16:00:32 22I JUV INVEST MICHIGAN AVE & GUTHRIE ST
19F079241 16:00:44 48 SUSPICIOUS 46XX STANDISH DR
19F079242 16:09:41 41,36 W JEFFERSON BLVD & I 69 302 SB ON
19F079244 16:11:30 48 SUSPICIOUS W JEFFERSON BLVD & EWING ST
19F079245 16:12:01 EMS 22XX DRAKE DR
19F079243 16:14:25 102,TX THREATS 2XX E MAPLE GROVE AVE
19F079246 16:21:08 103 UNWANTED 68XX BLUFFTON RD
19F079247 16:21:20 43 DISTURBANCE 50XX OLD MAYSVILLE RD
19F079251 16:21:28 99 NARCOTICS 32XX N ANTHONY BLVD
19F079248 16:24:43 25 PD ACCIDENT BROADWAY & W WASHINGTON BLVD
19F079249 16:29:54 22RN RUNAWAY 40XX AVONDALE DR
19F079250 16:31:12 22I JUV INVEST 35XX WEISSER PARK AVE
19F079252 16:36:24 46 DOMESTIC 35XX WEISSER PARK AVE
19F079253 16:41:01 40A AUDIBLE 14XX E STATE BLVD
19F079255 16:47:44 51 THEFT 101XX LIMA RD
19F079254 16:48:18 26 PI ACCIDENT S LAFAYETTE ST & GUMPPER AVE
19F079256 16:49:09 63 CONTACT SCHELE AVE & HOLLY AVE
19F079257 16:51:45 48,36 ROCKHILL ST & LAVINA ST
19F079258 16:54:16 EMS 65XX COVINGTON RD
19F079259 16:55:32 40A AUDIBLE 8XX W WASHINGTON CENTER RD
19F079260 16:59:29 48 SUSPICIOUS 7XX E COLISEUM BLVD
19F079261 17:00:45 46 DOMESTIC 30XX NORDHOLME AVE
19F079262 17:00:51 911 HANG UP 96XX RED TWIG PL
19F079264 17:04:20 43 DISTURBANCE 35XX WEISSER PARK AVE
19F079263 17:06:09 25 PD ACCIDENT 309XX I 69 SB
19F079266 17:09:32 EMS S CALHOUN ST & DOAN DR
19F079265 17:10:04 30 TRAFFIC STOP W CREIGHTON AVE & HOAGLAND AVE
19F079270 17:12:02 51,35 41XX LIMA RD
19F079267 17:14:47 25 PD ACCIDENT E WALLEN RD & COLDWATER RD
19F079268 17:15:31 43 DISTURBANCE 1XX E PETTIT AVE
19F079269 17:18:05 40A AUDIBLE 28XX E DUPONT RD
19F079272 17:19:18 63 CONTACT DAWSONS CREEK BLVD & W DUPONT RD
19F079271 17:25:07 23 VANDALISM 27XX W WASHINGTON CENTER RD
19F079284 17:46:05 51 THEFT 9XX EASTON TRL
19F079278 17:47:58 24 MISSING PERS 76XX COLD SPRINGS BLVD
19F079273 17:48:42 15 ASSIST 3XX W JEFFERSON BLVD
19F079275 17:49:24 40A AUDIBLE 27XX ORMSBY ST
19F079274 17:50:22 30 TRAFFIC STOP TAYLOR ST & NELSON ST
19F079280 17:54:40 51,35 6XX E DUPONT RD
19F079276 17:55:18 46,96 2XX E WOODLAND AVE
19F079283 17:55:35 25HS HIT SKIP XX E MAIN ST
19F079279 17:57:24 27 RECKLESS DRI W BERRY ST & FAIRFIELD AVE
19F079277 17:58:04 22N CHILD NEGLE 39XX W JEFFERSON BLVD
19F079320 18:01:12 14 WARRANT 35XX W COLISEUM BLVD
19F079281 18:02:16 44LM 48XX S MONROE ST
19F079282 18:10:53 34 TRAFF HAZARD 315XX I 69 NB
19F079285 18:17:08 40A AUDIBLE 34XX WELLS ST
19F079286 18:17:58 46 DOMESTIC 72XX LEMAR DR
19F079287 18:18:35 33,34 COLDWATER RD & E COLISEUM BLVD
19F079288 18:21:34 65A SUICIDE ATT 13XX GUTHRIE ST
19F079289 18:22:19 43 DISTURBANCE 21XX HOBSON RD
19F079294 18:22:20 40A AUDIBLE 17XX INWOOD DR
19F079290 18:24:43 45 NEIGHBORHOOD 2XX W LUDWIG RD
19F079291 18:27:01 46,62 16XX KENTUCKY AVE
19F079292 18:29:13 EMS 68XX MIMOSA LN
19F079293 18:31:39 46,96 9XX LINCOLN AVE
19F079302 18:33:11 46 DOMESTIC 104XX MAYSVILLE RD
19F079296 18:35:26 103 UNWANTED 27XX PITTSBURG ST
19F079295 18:36:09 40A AUDIBLE 102XX MAYSVILLE RD
19F079297 18:36:56 103 UNWANTED 2XX E FOURTH ST
19F079299 18:42:47 44FW 19XX WINCHESTER WOODS DR
19F079298 18:43:31 20 PROBLEM UNK 50XX MADIERA DR
19F079301 18:51:37 103 UNWANTED 68XX BLUFFTON RD
19F079300 18:51:50 26 PI ACCIDENT 30XX CENTRAL DR
19F079310 18:55:05 99 NARCOTICS 4XX W DEWALD ST
19F079303 19:03:12 15,85 ASST AT O 3XX W SUPERIOR ST
19F079304 19:13:00 40A AUDIBLE 39XX ABBOTT ST
19F079305 19:13:48 43 DISTURBANCE 40XX WEBSTER ST
19F079306 19:16:30 51 THEFT 7XX FOX ORCHARD RUN
19F079307 19:17:00 26 PI ACCIDENT COLDWATER RD & WALLEN HILLS DR
19F079311 19:24:01 66 MENTALLY ILL 5XX ANDERSON AVE
19F079308 19:24:46 51 THEFT 6XX S CALHOUN ST
19F079309 19:27:01 30 TRAFFIC STOP S CLINTON ST & E WAYNE ST
19F079312 19:31:44 65A SUICIDE ATT 75XX DECATUR RD
19F079313 19:35:40 30 TRAFFIC STOP COLDWATER RD & WOODLAND PLAZA RUN
19F079314 19:36:55 EMS 2XX PUTNAM ST
19F079315 19:42:07 40H HOLDUP ALRM 16XX KELLY DR
19F079316 19:52:53 99 NARCOTICS 35XX W COLISEUM BLVD
19F079317 19:54:29 46 DOMESTIC 45XX JASON DR
19F079318 20:03:58 43 DISTURBANCE 5XX W FOURTH ST
19F079319 20:04:29 15 ASSIST 21XX COVINGTON RD
19F079322 20:12:09 50 BURGLARY 10XX STOPHLET ST
19F079321 20:12:39 22RN RUNAWAY 38XX PLYMOUTH RD
19F079325 20:15:05 66 MENTALLY ILL 20XX N CLINTON ST
19F079323 20:24:36 43 DISTURBANCE 15XX HOWELL ST
19F079329 20:25:20 CAR FIRE 30XX SCHELE AVE
19F079327 20:25:31 63 CONTACT 9XX ANDROS LN
19F079326 20:27:16 48 SUSPICIOUS 10XX TENNESSEE AVE
19F079324 20:27:27 30 TRAFFIC STOP HIAWATHA BLVD & OPECHEE WAY
19F079330 20:31:29 44FW 31XX ELMHURST DR
19F079328 20:33:58 66 MENTALLY ILL 35XX EUCLID AVE
19F079332 20:46:24 43 DISTURBANCE 16XX HOBSON RD
19F079331 20:46:30 43 DISTURBANCE 14XX WOOD MOOR DR
19F079333 20:52:21 62 PARTY ARMED S HANNA ST & MCKINNIE AVE
19F079335 20:59:05 14 WARRANT 37XX E WASHINGTON BLVD
19F079334 20:59:29 911 HANG UP 9XX DELAWARE AVE
19F079337 21:01:20 66 MENTALLY ILL 19XX SPY RUN AVE
19F079336 21:05:56 108 FOLLOWUP 13XX S HARRISON ST
19F079338 21:08:38 43 DISTURBANCE 15XX HOWELL ST
19F079339 21:09:48 44FW 19XX N CLINTON ST
19F079343 21:11:10 44FW 61XX BLACKSTONE DR
19F079340 21:15:37 40A AUDIBLE 9XX LIBRARY PLAZA
19F079341 21:19:35 15,85 ASST AT O 43XX MIRADA DR
19F079342 21:19:38 43 DISTURBANCE 59XX LIMA RD
19F079344 21:24:18 43 DISTURBANCE 21XX JULIETTE AVE
19F079347 21:27:20 51 THEFT 30XX MCKINLEY AVE
19F079345 21:28:01 43 DISTURBANCE 64XX ST JOE CENTER RD
19F079360 21:29:02 44FW 48XX S HANNA ST
19F079346 21:30:26 25HS HIT SKIP 11XX SINCLAIR ST
19F079349 21:30:35 44FW S HADLEY RD & NORDALE DR
19F079348 21:32:08 44FW 10XX LAKE AVE
19F079366 21:32:47 96 BATTERY 37XX GOSHEN RD
19F079351 21:33:45 44FW 27XX W WASHINGTON CENTER RD
19F079350 21:33:46 EMS 3XX E DEWALD ST
19F079353 21:33:57 44FW 21XX ST JOSEPH BLVD
19F079352 21:36:00 39JO 102XX ILLINOIS RD
19F079354 21:38:29 46 DOMESTIC 33XX HOAGLAND AVE
19F079355 21:39:01 25 PD ACCIDENT 30XX E WASHINGTON BLVD
19F079359 21:39:02 44FW 13XX MELROSE AVE
19F079356 21:40:10 23,35 VAND VEH 12XX DELTA BLVD
19F079362 21:40:24 44FW 17XX COLUMBIA AVE
19F079357 21:42:05 46 DOMESTIC 99XX TETON CT
19F079358 21:46:58 48 SUSPICIOUS 9XX FULTON ST
19F079369 21:50:38 40A AUDIBLE 9XX FULTON ST
19F079361 21:55:08 30 TRAFFIC STOP W COLISEUM BLVD & SPEEDWAY DR
19F079365 21:56:50 48 SUSPICIOUS MCARTHUR DR & BEATY AVE
19F079363 21:56:54 32A DEATH NOTIF 89XX CRESTFIELD CT
19F079377 21:57:40 44FW 53XX MCCLELLAN ST
19F079364 21:58:58 43 DISTURBANCE 46XX WAYNE TRACE
19F079367 22:00:24 911 HANG UP 2XX BURNS BLVD
19F079368 22:03:21 25 PD ACCIDENT ST JOE CENTER RD & GATE TREE LN
19F079370 22:04:29 48 SUSPICIOUS 9XX WOODVIEW BLVD
19F079379 22:05:39 44FW 70XX ORDWAY DR
19F079371 22:07:33 30 TRAFFIC STOP S CALHOUN ST & E CROWN LN
19F079373 22:14:08 48 SUSPICIOUS 43XX ALBERT DR
19F079372 22:15:14 48 SUSPICIOUS SIXTH ST & N CALHOUN ST
19F079374 22:19:12 25 PD ACCIDENT W SUPERIOR ST & VAN BUREN ST
19F079376 22:23:08 40A AUDIBLE 49XX ESTER DR
19F079375 22:23:58 30 TRAFFIC STOP AUBURN RD & E DUPONT RD
19F079378 22:24:40 46 DOMESTIC 2XX E FOURTH ST
19F079383 22:28:57 40A AUDIBLE 1XX E BERRY ST
19F079382 22:30:11 44FW 53XX GOSHEN RD
19F079380 22:31:28 113 SHOTS FIRED 13XX FLETCHER AVE
19F079381 22:32:55 26 PI ACCIDENT FULTON ST & W WASHINGTON BLVD
19F079384 22:35:26 26HS PI HITSKIP WARSAW ST & MCKINNIE AVE
19F079385 22:35:41 46 DOMESTIC 25XX CRESCENT AVE
19F079396 22:35:50 27 RECKLESS DRI BUNT DR & E PAULDING RD
19F079386 22:38:58 48 SUSPICIOUS 13XX HUESTIS AVE
19F079387 22:39:01 113 SHOTS FIRED 9XX COLUMBIA AVE
19F079393 22:40:57 24 MISSING PERS 12XX GUTHRIE ST
19F079388 22:40:59 15 ASSIST 39XX LILLIE ST
19F079389 22:41:51 62 PARTY ARMED 28XX CASTLE DR
19F079392 22:42:10 113 SHOTS FIRED 46XX SOUTHPARK DR
19F079390 22:44:09 48 SUSPICIOUS 3XX FRENCH AVE
19F079391 22:46:03 23,113 69XX BRIGHT OAKS TRL
19F079395 22:50:57 25 PD ACCIDENT N CLINTON ST & E FOURTH ST
19F079394 22:53:22 103 UNWANTED 2XX E FOURTH ST
19F079397 22:54:32 62 PARTY ARMED 9XX FULTON ST
19F079398 22:55:09 30 TRAFFIC STOP E STATE BLVD & KENSINGTON BLVD
19F079400 22:56:44 46 DOMESTIC 28XX PENNSYLVANIA ST
19F079399 22:57:11 44FW 64XX MONARCH DR
19F079402 23:00:59 40A AUDIBLE 76XX BILLINGSLY WOODS DR
19F079401 23:01:22 25 PD ACCIDENT S BARR ST & E SUPERIOR ST
19F079403 23:02:03 27 RECKLESS DRI LIMA RD & LEY RD
19F079405 23:02:09 44LP 6XX CHERRY ST
19F079404 23:02:55 103 UNWANTED 34XX LAHMEYER RD
19F079412 23:06:31 67 INDECENT 16XX N MAYFIELD DR
19F079406 23:08:31 46 DOMESTIC 25XX ORMSBY ST
19F079408 23:09:04 44FW JANET DR & INNSBRUCK DR
19F079419 23:11:29 44FW 9XX WOODVIEW BLVD
19F079411 23:12:07 48 SUSPICIOUS 4XX W WASHINGTON BLVD
19F079407 23:12:28 22I JUV INVEST W STATE BLVD & SHERMAN BLVD
19F079410 23:13:34 41 MAN DOWN 8XX W MAIN ST
19F079409 23:13:48 40 ALARM 39XX ICE WAY
19F079413 23:15:41 41 MAN DOWN E WASHINGTON CENTER RD & COLDWATER
19F079414 23:18:21 65T SUICIDE THR 19XX KENSINGTON BLVD
19F079416 23:18:47 44FW 2XX MABRY CV
19F079415 23:19:08 43 DISTURBANCE 12XX MICHIGAN AVE
19F079427 23:20:59 44FW 20XX ALABAMA AVE
19F079417 23:22:08 48 SUSPICIOUS 47XX E WASHINGTON BLVD
19F079418 23:23:48 15 ASSIST SPRING ST & SHERMAN BLVD
19F079420 23:24:05 23IP VANDALISM 39XX E DUPONT RD
19F079423 23:28:56 96JO 49XX BADE DR
19F079422 23:29:39 46 DOMESTIC 21XX JULIETTE AVE
19F079421 23:29:45 40A AUDIBLE 9XX E COLISEUM BLVD
19F079424 23:31:27 911 HANG UP 6XX RUNNION AVE
19F079425 23:33:01 25HS HIT SKIP 31XX S HANNA ST
19F079433 23:34:22 22RC RECOVERY 25XX PITTSBURG ST
19F079426 23:36:47 56 MOLESTING 38XX STAFFORD DR
19F079428 23:37:54 62 PARTY ARMED 16XX BLK WELLS ST
19F079435 23:38:04 33,34 E COOK RD & AUBURN RD
19F079429 23:38:42 113 SHOTS FIRED E WASHINGTON BLVD & S ANTHONY BLVD
19F079438 23:38:54 45 NEIGHBORHOOD 46XX WAYNE TRACE
19F079430 23:41:07 30 TRAFFIC STOP E SR 930 & GREEN RD
19F079431 23:44:05 30 TRAFFIC STOP MAYHEW RD & ST JOE RD
19F079432 23:44:30 1 MEET 12XX GUTHRIE ST
19F079434 23:45:44 44 NUISANCE 21XX HERITAGE PARK DR
19F079436 23:46:34 25 PD ACCIDENT S MONROE ST & SENATE AVE
19F079437 23:48:48 113 SHOTS FIRED 5XX E MAPLE GROVE AVE
19F079439 23:50:30 44LP 10XX SHORE DR
19F079440 23:52:18 33,34 E PETTIT AVE & PLAZA DR
19F079446 23:52:22 22I JUV INVEST SPRINGBROOK RD & RAINTREE RD
19F079441 23:54:08 96JO 27XX W WASHINGTON CENTER RD
19F079445 23:55:22 1 MEET 17XX APPLE GLEN BLVD
19F079442 23:55:52 48 SUSPICIOUS 36XX TEMBERTON WAY
19F079444 23:56:06 46 DOMESTIC 84XX LAKESIDE DR
19F079443 23:57:34 22I JUV INVEST 87XX W JEFFERSON BLVD
19F079448 23:59:10 44 NUISANCE N ANTHONY BLVD & CLARA AVE
19F079447 23:59:53 46 DOMESTIC 69XX ORDWAY DR